Vertical_Velocity
2 1 0 3 -3 -1 -1 -1 2 -3 1 -0 -0 -3 0 -0 -1 0 -1 -1 -1 -3 -1 -2 -1 -0 -1 -1 -0 -0 -0 -0 -0 -0 1 1 -0 -1 -1 -0 0 -0 -0 -1 -0 0 0 -0 -1
-2 2 2 1 -3 -1 -5 1 -1 -2 -2 1 4 2 1 -3 -3 -2 -3 -0 -1 -2 0 -2 -1 0 -0 -0 -0 -1 -1 -1 -0 -1 -1 -0 -1 -1 -1 -0 -0 -0 -0 0 -1 -1 -0 0 0
1 2 5 5 -3 -16 -10 -0 2 -1 -1 0 2 2 1 1 -5 -0 -1 -3 0 -3 1 -1 -1 0 -0 -1 -0 -0 -0 -1 -1 -0 -0 -0 -0 -0 -1 -1 -0 -0 0 -0 -0 -0 0 -1 -1
2 5 5 -0 -14 1 -7 1 -2 -3 -1 -0 1 1 -2 4 -3 0 -0 -2 -2 -2 -0 -2 -1 -0 -0 -0 -0 -1 -0 0 -1 -0 -1 -1 0 0 -0 -0 -0 0 0 -0 0 1 -0 -0 -1
1 2 7 -1 -12 -8 1 2 -2 0 0 -1 -0 -2 -3 2 -3 -2 -1 -2 -1 -1 -1 -2 -1 -1 -1 -1 -1 -0 -0 0 1 -1 -0 0 -1 0 -0 -0 -1 -1 -0 -1 0 -0 -0 -1 -1
4 4 -2 -7 -17 -7 2 3 -2 -1 -2 1 -1 0 -2 5 -3 -2 -3 -2 -1 -1 -1 -2 -0 -0 -1 -1 -1 -1 -0 0 0 -0 -0 -0 -1 -0 -0 -1 -1 -1 -2 -1 -0 -0 -1 -1 -1
2 1 -4 -3 -13 2 -6 3 -5 4 -0 -0 -2 -2 -3 4 -1 -1 -3 -2 -0 -2 -2 -1 -1 0 0 0 0 -1 -0 -1 0 -1 -1 -1 -1 0 -0 -0 -1 -2 -1 -1 -1 -2 -2 -2 -1
4 5 3 -2 -18 -8 4 -1 7 -2 5 -1 2 -6 -3 2 1 -1 -2 -1 0 -1 -2 -1 -1 -0 -0 0 -1 -0 -1 -0 0 -0 -1 -1 -2 -1 -1 -1 -1 -1 -1 -1 -1 -1 -1 -0 -2
4 0 -1 -2 -5 1 -1 -2 3 0 -2 -1 -1 -0 -1 -0 0 -2 -2 -1 0 -0 -1 -1 -1 -1 0 0 -0 -0 -1 -1 -0 0 -0 -0 -2 -0 -2 -1 -1 -0 -0 -0 0 -0 -1 -1 -0
2 1 2 -0 2 1 11 5 9 6 -6 -3 -1 -1 -0 -1 -1 -0 -1 -1 -1 -1 -0 -0 -0 -0 0 -0 -0 -0 -1 -1 -1 -0 -0 0 -1 -1 -2 -2 -2 -2 -1 -1 -0 -1 -1 -1 -0
-3 -5 7 -0 -4 -2 10 5 2 3 -5 -5 1 3 2 -0 -1 -1 -1 -1 -4 -1 1 -0 -0 0 -1 -0 -0 -1 -1 -1 0 0 0 -0 0 0 -0 -1 -2 -2 -1 -1 -1 -0 -0 -0 -0
-7 -2 3 1 -3 -1 9 2 -0 1 -11 1 7 8 -2 1 2 1 -0 -1 -1 -1 1 1 -1 -1 -0 -0 0 0 -1 -0 0 0 -0 -0 -0 -1 -1 -1 -1 -1 -1 -1 -2 -2 -1 -1 -0
-6 2 1 1 -1 0 7 2 -0 -2 -2 1 3 -1 0 -0 -1 -0 -2 -2 0 0 -0 1 1 0 -0 0 0 1 -0 -1 0 -0 -1 -1 -1 -1 -2 -2 -1 -1 -1 -1 -1 -1 -1 -1 -2
4 11 -2 -2 -1 -0 4 -1 7 -2 -2 1 2 1 1 2 2 -1 -1 0 0 -2 0 1 0 -0 0 1 0 0 -0 -1 -1 -1 -1 -1 -1 -1 -1 -1 -1 -2 -2 -1 -1 -1 -2 -1 -2
7 0 1 -10 0 -3 3 -3 -11 3 -0 3 5 0 -1 1 -2 2 0 1 -2 -1 -0 -0 1 -0 -0 -0 -0 1 1 -0 -1 -0 -1 -1 -1 -0 -1 -1 -1 -1 -1 -2 -2 -2 -1 -1 -1
-2 6 1 -4 -1 -3 7 -6 -1 -1 -0 0 0 3 0 -1 4 -1 1 1 -2 -1 1 0 0 0 0 -1 -0 0 0 0 -0 -0 -1 -0 -0 -0 -1 -1 -1 -1 -1 -2 -1 -1 -2 -1 -0
4 -7 -6 1 -5 7 6 -4 -1 -1 -2 4 3 1 3 -0 -0 1 1 0 -0 -1 0 0 0 -0 -0 1 1 -0 0 -0 -2 -1 -1 -1 -0 -1 -0 -0 -0 -1 -1 -0 -0 -1 0 0 -1
2 5 -1 -7 -7 4 6 -2 -1 4 2 1 4 2 2 -2 5 4 2 1 -0 -1 -0 0 0 -1 -0 1 1 1 1 -1 -1 -1 0 0 0 0 -1 -1 -1 -0 -1 -1 -2 -2 -4 -2 -1
1 1 1 8 -1 5 -2 -3 3 2 2 -1 -0 -4 -0 1 2 -3 1 1 -0 1 2 0 0 -1 1 -0 -0 -1 -2 -0 0 1 1 -0 -1 -0 0 1 1 0 -1 -1 -0 -1 -1 -3 -0
-0 -0 -3 2 4 6 2 -4 2 2 -0 1 3 1 1 -1 -3 -0 1 1 4 1 2 1 0 0 -0 0 -1 -1 -0 0 1 -0 -1 0 1 2 0 -1 -1 -0 -0 -0 0 0 -0 -1 0
-1 -3 -5 0 1 3 4 -2 0 1 3 4 -1 -0 2 1 0 2 3 3 2 1 1 1 1 1 0 -1 0 1 1 1 -1 1 1 0 -1 -1 -1 -0 -1 -1 -1 -1 -1 -0 0 0 -1
6 6 7 1 5 -7 5 -9 -9 -2 -2 -2 0 -0 -1 -2 -1 1 2 1 -0 -0 1 1 1 2 1 2 1 0 -0 1 2 -1 -1 -1 -1 -2 -2 0 1 1 1 1 -1 -2 -2 -2 -0
-3 3 8 8 6 1 2 3 -12 -0 -2 -3 -1 -2 1 0 0 3 3 1 -2 0 -0 1 1 2 1 0 2 3 1 -0 1 0 -1 -2 -1 -1 -1 -1 -1 -0 -0 -0 0 1 2 3 0
2 1 5 6 4 1 0 4 -17 -5 -9 -4 -0 2 1 2 5 1 -1 -1 1 2 0 0 -1 -1 2 3 -1 -0 1 0 -0 0 0 0 0 -0 -1 -2 -2 -2 -1 -1 -1 -1 -2 -4 -2
-5 2 -1 -3 -4 -6 -0 7 -10 -0 -3 -6 -2 5 -1 4 4 2 1 1 1 -1 -1 -0 2 1 -1 1 2 -1 0 1 1 1 1 0 0 -1 -0 -1 -2 -2 -2 -1 -1 1 1 0 0
5 1 -9 -3 -3 -4 3 -6 -7 0 -1 -0 -3 1 1 3 2 2 1 0 -1 -1 -0 1 0 2 1 -2 0 1 1 1 2 1 0 0 0 -1 -2 -2 -1 1 1 -1 -0 -2 -4 -1 -2
3 2 7 -2 3 -0 -1 1 2 1 2 3 1 1 3 3 3 -0 0 -1 -1 2 1 2 1 1 2 1 1 1 1 0 -0 -1 -1 -1 -1 -2 -2 -4 -6 -7 -7 -7 -5 -5 -3 -2 -1
-2 3 2 -3 -2 0 -1 -0 1 0 2 4 2 1 2 2 1 1 1 1 1 1 0 1 2 3 1 0 0 -0 -1 -1 -1 -1 0 1 1 1 1 1 2 2 1 1 -1 -1 -3 -1 -2
-11 -16 -5 1 6 -5 -2 -1 2 2 2 4 2 1 1 1 -0 0 1 0 1 2 1 1 1 1 1 -0 -1 1 2 1 2 1 2 2 1 0 -0 -2 -2 -0 -0 1 1 2 3 1 1
11 1 2 9 -1 -0 1 0 -1 2 1 -0 0 1 2 2 1 3 2 -1 -2 -2 -2 -1 -0 -0 -1 -1 -1 -1 0 2 2 2 -0 -2 -3 -1 -1 -1 1 1 1 1 -1 1 3 1 0
Height
3164 3167 3169 3171 3177 3172 3169 3170 3169 3170 3170 3170 3170 3170 3171 3170 3172 3175 3171 3171 3171 3172 3173 3174 3174 3174 3174 3174 3174 3174 3173 3173 3172 3171 3170 3169 3168 3167 3166 3164 3163 3162 3160 3159 3157 3155 3154 3152 3151
3160 3164 3166 3167 3169 3168 3167 3168 3168 3169 3170 3170 3170 3169 3170 3171 3172 3172 3172 3171 3172 3173 3173 3173 3174 3174 3174 3174 3174 3174 3173 3173 3172 3171 3170 3169 3167 3166 3165 3163 3162 3160 3159 3157 3155 3153 3151 3150 3148
3155 3159 3162 3162 3161 3161 3164 3166 3167 3168 3169 3170 3170 3170 3170 3171 3171 3171 3171 3171 3172 3172 3172 3173 3173 3173 3174 3174 3174 3174 3173 3173 3172 3171 3169 3168 3167 3165 3164 3162 3160 3158 3156 3155 3153 3150 3148 3147 3146
3149 3153 3156 3153 3152 3157 3162 3164 3164 3166 3168 3169 3169 3169 3169 3170 3171 3170 3171 3171 3172 3172 3172 3173 3173 3173 3173 3174 3174 3174 3173 3172 3172 3170 3169 3168 3166 3165 3163 3161 3159 3157 3155 3153 3151 3148 3146 3144 3143
3143 3145 3146 3143 3147 3153 3159 3162 3163 3165 3166 3167 3167 3168 3167 3169 3171 3170 3170 3171 3171 3172 3173 3172 3172 3173 3173 3174 3174 3174 3173 3172 3171 3170 3169 3167 3165 3163 3162 3160 3157 3156 3154 3152 3149 3147 3145 3143 3141
3135 3137 3135 3134 3142 3150 3155 3159 3160 3162 3163 3165 3166 3166 3166 3168 3170 3170 3169 3170 3171 3172 3172 3172 3172 3172 3173 3173 3173 3173 3172 3172 3170 3169 3168 3166 3164 3162 3160 3158 3156 3154 3152 3150 3148 3146 3144 3142 3140
3126 3128 3127 3131 3138 3143 3149 3155 3156 3159 3161 3163 3164 3165 3165 3167 3169 3169 3169 3170 3170 3171 3172 3172 3171 3171 3172 3172 3172 3172 3172 3171 3169 3168 3166 3165 3163 3161 3159 3157 3155 3153 3151 3149 3146 3144 3143 3141 3139
3121 3122 3122 3125 3131 3135 3146 3152 3154 3155 3157 3160 3161 3162 3164 3166 3167 3167 3168 3169 3170 3170 3171 3171 3171 3171 3171 3172 3171 3171 3170 3169 3168 3167 3166 3164 3161 3159 3157 3156 3154 3152 3150 3147 3145 3142 3140 3139 3137
3114 3117 3115 3121 3130 3133 3142 3147 3149 3151 3153 3155 3157 3160 3162 3163 3165 3166 3167 3168 3169 3170 3170 3171 3170 3170 3170 3170 3170 3170 3169 3168 3167 3165 3164 3163 3161 3158 3156 3155 3152 3150 3148 3145 3142 3140 3138 3136 3134
3109 3107 3111 3120 3128 3133 3137 3140 3146 3147 3149 3150 3154 3158 3160 3162 3163 3164 3165 3167 3168 3169 3170 3170 3170 3170 3169 3169 3169 3169 3168 3167 3165 3164 3162 3161 3159 3157 3154 3153 3151 3148 3145 3143 3139 3137 3134 3132 3131
3102 3101 3109 3115 3124 3129 3131 3135 3138 3141 3143 3147 3152 3156 3158 3159 3160 3162 3163 3165 3166 3167 3168 3169 3169 3169 3169 3168 3168 3167 3166 3165 3163 3162 3160 3159 3157 3155 3152 3151 3149 3146 3143 3140 3136 3134 3131 3129 3127
3098 3100 3105 3113 3119 3123 3125 3129 3131 3135 3141 3147 3149 3153 3155 3156 3158 3160 3162 3163 3164 3166 3167 3168 3168 3168 3168 3167 3166 3165 3164 3163 3161 3160 3158 3156 3154 3152 3150 3148 3145 3143 3140 3137 3133 3130 3127 3125 3123
3093 3097 3102 3110 3114 3118 3119 3123 3127 3130 3136 3141 3144 3148 3151 3153 3155 3157 3159 3161 3162 3164 3165 3166 3166 3167 3167 3166 3165 3163 3162 3160 3159 3157 3156 3154 3152 3150 3148 3145 3143 3140 3136 3133 3130 3127 3124 3121 3119
3091 3092 3098 3104 3109 3112 3114 3118 3121 3126 3132 3136 3140 3144 3147 3150 3152 3154 3156 3159 3160 3161 3163 3164 3164 3165 3165 3163 3162 3161 3160 3158 3157 3155 3153 3151 3149 3147 3144 3141 3139 3136 3133 3129 3126 3123 3120 3118 3115
3088 3091 3093 3098 3105 3107 3110 3113 3114 3122 3128 3132 3136 3139 3143 3146 3148 3151 3154 3156 3158 3159 3160 3161 3161 3162 3162 3161 3160 3158 3157 3156 3154 3153 3151 3149 3146 3143 3140 3137 3134 3132 3129 3126 3123 3120 3117 3114 3111
3086 3089 3089 3094 3100 3103 3107 3107 3112 3118 3124 3129 3132 3136 3139 3143 3146 3148 3151 3153 3154 3156 3157 3158 3158 3158 3158 3157 3157 3156 3154 3153 3151 3149 3147 3144 3142 3139 3136 3134 3131 3128 3125 3122 3119 3116 3113 3111 3108
3083 3083 3086 3090 3095 3101 3103 3104 3109 3115 3120 3125 3129 3132 3136 3139 3142 3145 3148 3150 3151 3153 3154 3155 3155 3155 3155 3154 3154 3152 3151 3150 3148 3145 3142 3140 3138 3135 3133 3130 3127 3124 3121 3119 3116 3113 3111 3108 3105
3077 3079 3081 3084 3092 3095 3099 3102 3106 3111 3116 3122 3125 3129 3133 3137 3140 3142 3145 3146 3148 3150 3151 3151 3151 3151 3151 3151 3150 3149 3148 3146 3143 3142 3139 3136 3134 3131 3129 3127 3124 3121 3118 3115 3112 3109 3106 3105 3103
3079 3081 3082 3083 3089 3093 3096 3101 3104 3109 3112 3116 3120 3125 3130 3134 3136 3139 3141 3142 3144 3146 3148 3148 3147 3147 3147 3147 3146 3145 3144 3142 3140 3137 3135 3132 3130 3128 3125 3123 3120 3117 3114 3111 3108 3105 3102 3098 3097
3078 3079 3082 3083 3087 3092 3094 3098 3102 3104 3109 3114 3118 3122 3126 3129 3132 3135 3137 3139 3141 3142 3143 3144 3144 3143 3143 3143 3143 3142 3140 3137 3134 3132 3130 3128 3126 3124 3121 3118 3115 3112 3108 3105 3102 3100 3098 3094 3092
3076 3077 3080 3083 3086 3090 3092 3096 3097 3100 3104 3108 3113 3118 3121 3125 3129 3132 3134 3136 3137 3138 3139 3139 3139 3140 3140 3139 3138 3136 3133 3132 3130 3128 3126 3124 3121 3118 3115 3112 3109 3106 3103 3100 3097 3094 3092 3089 3086
3072 3076 3080 3082 3084 3086 3090 3091 3093 3097 3101 3104 3109 3113 3118 3121 3124 3127 3129 3131 3133 3133 3134 3135 3135 3136 3135 3134 3132 3130 3128 3127 3125 3123 3121 3118 3116 3113 3110 3107 3105 3102 3099 3095 3092 3089 3086 3084 3081
3072 3076 3079 3081 3083 3085 3087 3092 3091 3094 3096 3100 3106 3112 3114 3117 3120 3122 3125 3126 3128 3129 3131 3131 3131 3130 3129 3128 3126 3125 3123 3121 3119 3117 3116 3113 3111 3108 3106 3103 3100 3096 3093 3090 3087 3084 3081 3079 3077
3072 3076 3078 3080 3082 3084 3084 3087 3088 3090 3095 3101 3105 3108 3111 3114 3116 3118 3119 3121 3124 3125 3125 3126 3125 3125 3124 3123 3121 3119 3117 3116 3114 3113 3111 3109 3106 3103 3100 3097 3094 3091 3088 3085 3082 3080 3077 3075 3073
3072 3075 3079 3084 3083 3084 3082 3084 3084 3087 3091 3096 3100 3103 3106 3109 3112 3114 3116 3118 3119 3119 3120 3120 3119 3118 3118 3117 3115 3115 3113 3111 3109 3107 3105 3103 3100 3097 3094 3091 3088 3085 3082 3080 3077 3075 3072 3070 3068
3069 3071 3072 3077 3082 3079 3080 3080 3081 3083 3085 3088 3093 3097 3100 3104 3108 3111 3113 3114 3114 3114 3114 3114 3114 3113 3112 3112 3110 3108 3107 3105 3103 3101 3098 3096 3093 3091 3088 3085 3082 3080 3077 3074 3072 3069 3067 3065 3062
3069 3071 3074 3074 3071 3075 3077 3078 3078 3079 3082 3084 3087 3092 3097 3102 3105 3107 3108 3109 3109 3110 3110 3110 3109 3109 3107 3106 3104 3103 3101 3099 3096 3094 3092 3090 3087 3085 3082 3079 3077 3074 3072 3069 3067 3064 3061 3058 3055
3067 3071 3076 3075 3075 3075 3075 3075 3074 3077 3080 3083 3086 3090 3094 3098 3100 3103 3104 3104 3105 3105 3106 3105 3104 3103 3101 3100 3098 3096 3094 3093 3091 3088 3086 3084 3082 3079 3076 3074 3071 3068 3065 3062 3060 3057 3055 3052 3049
3070 3071 3072 3073 3067 3069 3075 3074 3073 3075 3078 3082 3085 3088 3092 3094 3097 3099 3100 3101 3101 3101 3101 3100 3098 3097 3095 3094 3092 3090 3088 3087 3084 3082 3080 3078 3076 3073 3070 3068 3065 3062 3059 3056 3053 3050 3047 3044 3041
3069 3068 3069 3066 3065 3065 3067 3073 3072 3075 3077 3080 3084 3087 3090 3092 3095 3097 3097 3097 3097 3096 3095 3094 3093 3092 3090 3088 3086 3084 3083 3081 3078 3076 3073 3071 3069 3066 3064 3061 3058 3055 3052 3049 3046 3043 3040 3036 3032